Tracking 30922 objects as of 2-Jul-2025
HD Live streaming from Space Station
objects crossing your sky now

STARLINK-5488

Track STARLINK-5488 now!
10-day predictions
STARLINK-5488 is classified as:


NORAD ID: 57250
Int'l Code: 2023-094AJ
Perigee: 565.3 km
Apogee: 567.2 km
Inclination: 43.0 °
Period: 95.8 minutes
Semi major axis: 6937 km
RCS: Unknown
Launch date: July 7, 2023
Source: United States (US)
Launch site: AIR FORCE WESTERN TEST RANGE (AFWTR)
Your satellite tracking list
NOAA 16 DEB
Track 1 satellite(s)




NASA's NSSDC Master Catalog

Two Line Element Set (TLE):
1 57250U 23094AJ  25182.63625476 -.00000311  00000-0 -79220-5 0  9996
2 57250  43.0065 301.5955 0001386 268.8210  91.2473 15.02533918109500
Source of the keplerian elements: AFSPC